Regional Weather Roundup
Issued by NWS

Home | Current Version | Previous Version | Graphics & Text | Print | Product List | Glossary On
Versions: 1 2 3 4 5 6 7 8 9 10 11 12 13 14 15 16 17 18 19 20 21 22 23 24 25 26 27 28 29 30 31 32 33 34 35 36 37 38 39 40 41 42 43 44 45 46 47 48 49 50
635
ASUS44 KLIX 221601
RWRLA
LOUISIANA WEATHER ROUNDUP
NATIONAL WEATHER SERVICE NEW ORLEANS LA
1100 AM CDT MON SEP 22 2014

NOTE: "FAIR" INDICATES FEW OR NO CLOUDS BELOW 12,000 FEET WITH NO
      SIGNIFICANT WEATHER AND/OR OBSTRUCTIONS TO VISIBILITY.
      SKY/WX - SKY CONDITION AND SIGNIFICANT WEATHER.
      TMP - AIR TEMPERATURE.    DP   - DEWPOINT TEMPERATURE.
      RH  - RELATIVE HUMIDITY.  PRES - PRESSURE.
      HX  - HEAT INDEX.         WCI  - WIND CHILL INDEX.

*  THESE STATIONS ARE NOT NWS OR FAA STATIONS AND ARE NOT UNDER
   NWS QUALITY CONTROL.

LAZ040-048-061>063-065-066-069-221700-
SOUTHEAST LOUISIANA

CITY           SKY/WX    TMP DP  RH WIND       PRES   REMARKS
N.O. AUDUBON     N/A     89  75  64 MISG        N/A  HX  98
N.O. INTL ARPT MOSUNNY   87  69  54 N7        30.05R
N.O. LAKEFRONT SUNNY     85  70  60 N6        30.05S
N.O. DOWNTOWN* FAIR      84  66  54 CALM      30.06R
SLIDELL        SUNNY     85  70  60 VRB3      30.04F
BATON ROUGE    SUNNY     84  72  67 NE8       30.06F
BOOTHVILLE     SUNNY     85  76  74 N8        30.05R
BELLE CHASSE   MOSUNNY   88  68  51 VRB7      30.04S
BOGALUSA*      FAIR      82  70  66 NE6       30.07S
GALLIANO*      NOT AVBL
NEW ROADS*     FAIR      81  71  71 N6        30.07S
GONZALES*      FAIR      85  73  67 N5        30.05S
HAMMOND*       NOT AVBL
HOUMA*         SUNNY     86  46  25 N3        30.04F
PORT FOURCHON* SUNNY     84  70  61 NE9       30.08R

$$

LAZ041-044-053-054-221700-
SOUTHWEST LOUISIANA

CITY           SKY/WX    TMP DP  RH WIND       PRES   REMARKS
LAKE CHARLES   SUNNY     83  72  69 N12       30.08R
LAFAYETTE      SUNNY     84  73  69 NE8       30.07S
PATTERSON      SUNNY     84  72  65 N8        30.08S
SALT POINT       N/A     87  71  58 VRB6      30.04S
NEW IBERIA     SUNNY     86  73  65 N7        30.07R
CHENAULT AIRPK SUNNY     79  72  78 N7        30.08S

$$

LAZ027-028-221700-
CENTRAL LOUISIANA

CITY           SKY/WX    TMP DP  RH WIND       PRES   REMARKS
FORT POLK      MOSUNNY   80  61  52 NE9       30.11S
ALEXANDRIA INT CLOUDY    77  61  57 NE8       30.11R
ALEXANDRIA     CLOUDY    77  62  59 NE8       30.12R

$$

LAZ001-002-221700-
NORTHWEST LOUISIANA

CITY           SKY/WX    TMP DP  RH WIND       PRES   REMARKS
SHREVEPORT     MOSUNNY   79  54  41 NE15      30.17F
BARKSDALE AFB  NOT AVBL
DTN SHREVEPORT SUNNY     77  53  43 NE12      30.18F

$$

LAZ014-016-221700-
NORTHEAST LOUISIANA

CITY           SKY/WX    TMP DP  RH WIND       PRES   REMARKS
MONROE         SUNNY     79  54  41 NE16G22   30.17F
TALLULAH       SUNNY     79  56  45 NE12G21   30.14F

$$




USA.gov is the U.S. government's official web portal to all federal, state and local government web resources and services.